Regional Weather Roundup
Issued by NWS

Home | Current Version | Previous Version | Text Only | Print | Product List | Glossary On
Versions: 1 2 3 4 5 6 7 8 9 10 11 12 13 14 15 16 17 18 19 20 21 22 23 24 25 26 27 28 29 30 31 32 33 34 35 36 37 38 39 40 41 42 43 44 45 46 47 48 49 50
000
ASUS46 KSEW 230010
RWRWA

WASHINGTON REGIONAL WEATHER ROUNDUP
NATIONAL WEATHER SERVICE SEATTLE WA
400 PM PST MON DEC 22 2014

NOTE:"FAIR" INDICATES FEW OR NO CLOUDS BELOW 12,000 FEET WITH NO
SIGNIFICANT WEATHER AND/OR OBSTRUCTIONS TO VISIBILITY.

WAZ505-507>509-230100-
SEATTLE, TACOMA, EVERETT, AND VICINITY

CITY           SKY/WX    TMP DP  RH WIND       PRES   REMARKS
EVERETT        CLOUDY    48  39  71 E5        30.37R
6HR MIN TEMP:  46; 6HR MAX TEMP:  49;

BOEING FIELD   CLOUDY    52  41  66 CALM      30.37S
6HR MIN TEMP:  48; 6HR MAX TEMP:  54;

RENTON         CLOUDY    50  42  74 CALM      30.37S
6HR MIN TEMP:  45; 6HR MAX TEMP:  52;

SEATAC AIRPORT CLOUDY    48  42  80 CALM      30.38S
6HR MIN TEMP:  46; 6HR MAX TEMP:  51;

JBLM-MCCHORD   CLOUDY    48  45  87 CALM      30.37S
6HR MIN TEMP:  44; 6HR MAX TEMP:  49;

PUYALLUP       NOT AVBL
JBLM-FT LEWIS  MOCLDY    48  47  96 N1        30.37S
6HR MIN TEMP:  43; 6HR MAX TEMP:  49;

TACOMA NARROWS CLOUDY    47  42  83 CALM      30.38R
6HR MIN TEMP:  46; 6HR MAX TEMP:  50;

$$

WAZ001-503-506-510-514-515-230100-
NORTH INTERIOR

CITY           SKY/WX    TMP DP  RH WIND       PRES   REMARKS
BELLINGHAM     CLOUDY    47  40  76 SE3       30.37F
6HR MIN TEMP:  45; 6HR MAX TEMP:  48;

FRIDAY HARBOR  CLOUDY    45  40  82 CALM      30.39S
6HR MIN TEMP:  42; 6HR MAX TEMP:  47;

EASTSOUND      CLOUDY    45  41  87 CALM      30.36S
PORT ANGELES   CLOUDY    45  39  79 CALM      30.36F
6HR MIN TEMP:  45; 6HR MAX TEMP:  49;

NAS WHIDBEY    CLOUDY    50  41  71 E6        30.38S
6HR MIN TEMP:  50; 6HR MAX TEMP:  53;

BURLINGTON     CLEAR     46  45  93 CALM      30.39F
$$

WAZ020-022-039-040-504-511-512-230100-
SOUTHWEST INTERIOR

CITY           SKY/WX    TMP DP  RH WIND       PRES   REMARKS
SHELTON        CLOUDY    45  42  89 CALM      30.34F
6HR MIN TEMP:  41; 6HR MAX TEMP:  46;

OLYMPIA        CLOUDY    47  44  90 CALM      30.36F
6HR MIN TEMP:  43; 6HR MAX TEMP:  50;

CHEHALIS       FAIR      50  48  93 CALM      30.36S
KELSO          CLOUDY    52  45  76 CALM      30.39S
6HR MIN TEMP:  46; 6HR MAX TEMP:  54;

VANCOUVER      CLOUDY    53  45  74 E3        30.36R
6HR MIN TEMP:  48; 6HR MAX TEMP:  56;

SCAPPOOSE, OR  CLOUDY    52  47  83 W3        30.36S
6HR MIN TEMP:  47; 6HR MAX TEMP:  53;

PORTLAND, OR   MOCLDY    52  46  80 E5        30.37R
6HR MIN TEMP:  49; 6HR MAX TEMP:  56;

$$

WAZ021-516-517-230100-
WASHINGTON COAST

CITY           SKY/WX    TMP DP  RH WIND       PRES   REMARKS
FORKS          CLOUDY    47  46  97 E5        30.33F
6HR MIN TEMP:  41; 6HR MAX TEMP:  48;

HOQUIAM        CLOUDY    50  45  83 NE5       30.34F
6HR MIN TEMP:  46; 6HR MAX TEMP:  51;

ASTORIA, OR    CLOUDY    51  47  86 E6        30.34S
6HR MIN TEMP:  45; 6HR MAX TEMP:  52;

$$

WAZ019-023-024-040-518-519-230100-
CASCADE MOUNTAINS AND COLUMBIA GORGE

CITY           SKY/WX    TMP DP  RH WIND       PRES   REMARKS
TROUTDALE, OR  MOCLDY    52  45  77 CALM      30.36R
6HR MIN TEMP:  50; 6HR MAX TEMP:  56;

THE DALLES, OR PTCLDY    53  37  54 NW10      30.33R
6HR MIN TEMP:  52; 6HR MAX TEMP:  56;

$$

WAZ026-027-041>044-520-521-230100-
EAST SLOPES

CITY           SKY/WX    TMP DP  RH WIND       PRES   REMARKS
OMAK           PTCLDY    40  30  67 CALM      30.28R
6HR MIN TEMP:  37; 6HR MAX TEMP:  46;

WENATCHEE      PTCLDY    48  27  44 NW7       30.30R
6HR MIN TEMP:  45; 6HR MAX TEMP:  51;

ELLENSBURG     PTCLDY    47  31  53 NW16      30.29R
6HR MIN TEMP:  45; 6HR MAX TEMP:  50;

YAKIMA         PTCLDY    52  29  41 NW3       30.30R
6HR MIN TEMP:  49; 6HR MAX TEMP:  56;

$$

WAZ028-034-035-230100-
COLUMBIA BASIN

CITY           SKY/WX    TMP DP  RH WIND       PRES   REMARKS
EPHRATA        CLOUDY    47  28  47 CALM      30.28R
6HR MIN TEMP:  47; 6HR MAX TEMP:  52;

MOSES LAKE     MOCLDY    45  32  60 NW9       30.29S
6HR MIN TEMP:  45; 6HR MAX TEMP:  52;

PASCO          MOCLDY    52  33  48 W7        30.34R
6HR MIN TEMP:  51; 6HR MAX TEMP:  56;

HERMISTON, OR  PTCLDY    51  36  56 SW5       30.33R
6HR MIN TEMP:  50; 6HR MAX TEMP:  54;

$$

WAZ036>038-230100-
NORTHEAST WASHINGTON

CITY           SKY/WX    TMP DP  RH WIND       PRES   REMARKS
SPOKANE GEIGER PTCLDY    38  28  67 W9        30.24R
6HR MIN TEMP:  38; 6HR MAX TEMP:  45;

SPOKANE FELTS  CLEAR     43  29  57 W5        30.25R
6HR MIN TEMP:  39; 6HR MAX TEMP:  47;

FAIRCHILD AFB  CLEAR     38  29  68 W8        30.24R
6HR MIN TEMP:  38; 6HR MAX TEMP:  45; 6HR PCP: TRACE;

COEURDALENE,ID CLEAR     39  28  65 SW7       30.22R
6HR MIN TEMP:  37; 6HR MAX TEMP:  45;

DEER PARK      CLEAR     40  23  50 NW6       30.24R
6HR MIN TEMP:  35; 6HR MAX TEMP:  47;

$$

WAZ029>033-230100-
SOUTHEAST WASHINGTON

CITY           SKY/WX    TMP DP  RH WIND       PRES   REMARKS
PULLMAN        CLEAR     38  30  73 W8        30.28R
6HR MIN TEMP:  38; 6HR MAX TEMP:  43;

LEWISTON, ID   CLEAR     45  30  55 W5        30.29R
6HR MIN TEMP:  45; 6HR MAX TEMP:  50; 6HR PCP: TRACE;

WALLA WALLA    PTCLDY    47  36  65 SW6       30.33R
6HR MIN TEMP:  47; 6HR MAX TEMP:  52;

PENDLETON, OR  PTCLDY    47  39  74 W6        30.32R
6HR MIN TEMP:  46; 6HR MAX TEMP:  49;

$$


USA.gov is the U.S. government's official web portal to all federal, state and local government web resources and services.